Weather History for Fort Rucker / Ozark, AL

Change the Weather History Date:

Thursday, October 3, 2013

  Actual Average (KDHN) Record (KDHN)
Temperature  
Mean Temperature 76 °F 72 °F  
Max Temperature 87 °F 83 °F 94 °F (1954)
Min Temperature 64 °F 60 °F 46 °F (2011)
Degree Days  
Heating Degree Days 0 0  
Month to date heating degree days 0  
Since 1 July heating degree days 2  
Cooling Degree Days 10 7  
Month to date cooling degree days 22  
Year to date cooling degree days 2250  
Growing Degree Days 26 (Base 50)    
Moisture  
Dew Point 65 °F    
Average Humidity 74    
Maximum Humidity 93    
Minimum Humidity 43    
Precipitation  
Precipitation 0.17 in 0.10 in 1.85 in (1964)
Month to date precipitation 0.29  
Year to date precipitation 42.27  
Sea Level Pressure  
Sea Level Pressure 30.05 in    
Wind  
Wind Speed 1 mph (East)    
Max Wind Speed 6 mph    
Max Gust Speed -    
Visibility 10 miles    
Events      
T = Trace of Precipitation, MM = Missing Value Source: NWS Daily Summary

Daily Weather History Graph

Daily Weather History Graph

Search for Another Location

Airport:

Trip Planner

Search our weather history database for the weather conditions in past years. The results will help you decide how hot, cold, wet, or windy it might be!

Date:

Astronomy

Oct. 03, 2013 Rise Set
Actual Time 6:38 AM CDT 6:25 PM CDT
Civil Twilight 6:13 AM CDT 6:49 PM CDT
Nautical Twilight 5:45 AM CDT 7:17 PM CDT
Astronomical Twilight 5:17 AM CDT 7:45 PM CDT
Moon 5:14 AM CDT (10/3) 5:31 PM CDT (10/3)
Length of Visible Light 12h 35m
Length of Day
11h 47m
Waning Crescent, 2% of the Moon is Illuminated
Oct 3
Waning Crescent
Oct 4
New
Oct 11
First Quarter
Oct 18
Full
Oct 26
Last Quarter

Hourly Weather History & Observations

Time (CDT) Temp. Heat Index Dew Point Humidity Pressure Visibility Wind Dir Wind Speed Gust Speed Precip Events Conditions
12:53 AM 68.0 °F - 64.9 °F 90% 30.06 in 9.0 mi Calm Calm - N/A   Clear
1:53 AM 68.0 °F - 63.0 °F 84% 30.05 in 10.0 mi Calm Calm - N/A   Clear
2:53 AM 68.0 °F - 63.0 °F 84% 30.04 in 10.0 mi Calm Calm - N/A   Clear
3:53 AM 66.9 °F - 63.0 °F 87% 30.04 in 10.0 mi Calm Calm - N/A   Clear
4:53 AM 66.9 °F - 63.0 °F 87% 30.03 in 10.0 mi NE 4.6 mph - N/A   Clear
5:53 AM 64.9 °F - 63.0 °F 93% 30.04 in 8.0 mi Calm Calm - N/A   Clear
6:53 AM 64.9 °F - 63.0 °F 93% 30.06 in 6.0 mi Calm Calm - N/A   Clear
7:53 AM 69.1 °F - 64.0 °F 84% 30.07 in 9.0 mi East 3.5 mph - N/A   Clear
8:53 AM 73.0 °F - 66.0 °F 79% 30.09 in 10.0 mi ESE 4.6 mph - N/A   Clear
9:53 AM 79.0 °F - 64.0 °F 60% 30.09 in 10.0 mi Variable 4.6 mph - N/A   Clear
10:53 AM - - - N/A% 30.11 in - North - - N/A   Unknown
11:53 AM 84.0 °F 83.8 °F 59.0 °F 43% 30.08 in 10.0 mi Variable 4.6 mph - 0.17 in   Clear
12:53 PM 84.9 °F 85.0 °F 61.0 °F 44% 30.06 in 10.0 mi Calm Calm - N/A   Scattered Clouds
1:53 PM 87.1 °F 87.5 °F 62.1 °F 43% 30.04 in 10.0 mi Variable 5.8 mph - N/A   Mostly Cloudy
2:53 PM 86.0 °F 86.3 °F 62.1 °F 44% 30.02 in 10.0 mi Calm Calm - N/A   Partly Cloudy
3:53 PM 86.0 °F 86.8 °F 63.0 °F 46% 30.01 in 10.0 mi Calm Calm - N/A   Clear
4:53 PM 82.9 °F 84.6 °F 64.9 °F 54% 30.00 in 10.0 mi Calm Calm - N/A   Clear
5:53 PM 81.0 °F 84.4 °F 70.0 °F 69% 30.02 in 10.0 mi Calm Calm - N/A   Clear
6:53 PM 73.9 °F - 69.1 °F 85% 30.03 in 10.0 mi Calm Calm - N/A   Clear
7:53 PM 73.0 °F - 69.1 °F 87% 30.04 in 10.0 mi Calm Calm - N/A   Clear
8:53 PM 71.1 °F - 68.0 °F 90% 30.06 in 10.0 mi Calm Calm - N/A   Clear
9:53 PM 71.1 °F - 68.0 °F 90% 30.06 in 10.0 mi Calm Calm - N/A   Clear
11:53 PM 69.1 °F - 66.9 °F 93% 30.06 in 7.0 mi Calm Calm - N/A   Clear